• In Latvia
  • List of Countries
  • For 7 days
  • Water Temperature
  • Satellite Maps
  • Weather Map
  • Weather Widgets
  • user-avatar
    Login

    Hourly Weather Bregenz

    Today, 26 September, Tuesday

    Time Temperature Precipitation Wind Pressure Humidity
    00:00 +5°C° 0 mm 1 mps 648 mmHg 84%
    01:00 +5°C° 0 mm 1 mps 648 mmHg 83%
    02:00 +5°C° 0 mm 1 mps 647 mmHg 83%
    03:00 +5°C° 0 mm 1 mps 647 mmHg 83%
    04:00 +5°C° 0 mm 1 mps 647 mmHg 83%
    05:00 +5°C° 0 mm 1 mps 647 mmHg 83%
    06:00 +5°C° 0 mm 1 mps 648 mmHg 82%
    07:00 +7°C° 0 mm 1 mps 648 mmHg 79%
    08:00 +9°C° 0 mm 1 mps 649 mmHg 73%
    09:00 +11°C° 0 mm 1 mps 650 mmHg 66%
    10:00 +12°C° 0 mm 0 mps 650 mmHg 60%
    11:00 +14°C° 0 mm 1 mps 650 mmHg 57%
    12:00 +14°C° 0 mm 1 mps 650 mmHg 55%
    13:00 +15°C° 0 mm 1 mps 651 mmHg 53%
    14:00 +15°C° 0.1 mm 1 mps 650 mmHg 57%
    15:00 +14°C° 0.1 mm 1 mps 650 mmHg 62%
    16:00 +13°C° 0.1 mm 2 mps 650 mmHg 67%
    17:00 +12°C° 0.1 mm 1 mps 650 mmHg 75%
    18:00 +10°C° 0.1 mm 1 mps 650 mmHg 83%
    19:00 +8°C° 0.1 mm 1 mps 649 mmHg 91%
    20:00 +8°C° 0 mm 1 mps 649 mmHg 91%
    21:00 +7°C° 0 mm 1 mps 650 mmHg 92%
    22:00 +7°C° 0 mm 1 mps 650 mmHg 92%
    23:00 +7°C° 0 mm 1 mps 650 mmHg 92%

    Tomorrow, 27 September, Wednesday

    Time Temperature Precipitation Wind Pressure Humidity
    00:00 +6°C° 0 mm 1 mps 650 mmHg 91%
    01:00 +6°C° 0 mm 1 mps 650 mmHg 91%
    02:00 +6°C° 0 mm 1 mps 649 mmHg 91%
    03:00 +6°C° 0 mm 1 mps 649 mmHg 90%
    04:00 +6°C° 0 mm 1 mps 649 mmHg 90%
    05:00 +6°C° 0 mm 1 mps 650 mmHg 89%
    06:00 +6°C° 0 mm 1 mps 650 mmHg 89%
    07:00 +6°C° 0 mm 1 mps 650 mmHg 89%
    08:00 +9°C° 0 mm 1 mps 651 mmHg 81%
    09:00 +11°C° 0 mm 1 mps 651 mmHg 73%
    10:00 +13°C° 0 mm 0 mps 652 mmHg 65%
    11:00 +15°C° 0.1 mm 1 mps 652 mmHg 62%
    12:00 +15°C° 0.1 mm 1 mps 652 mmHg 60%
    13:00 +16°C° 0.1 mm 1 mps 652 mmHg 57%
    14:00 +16°C° 0.4 mm 1 mps 652 mmHg 62%
    15:00 +15°C° 0.4 mm 1 mps 652 mmHg 66%
    16:00 +15°C° 0.4 mm 1 mps 652 mmHg 70%
    17:00 +13°C° 0.2 mm 1 mps 651 mmHg 76%
    18:00 +11°C° 0.2 mm 1 mps 651 mmHg 83%
    19:00 +9°C° 0.2 mm 1 mps 651 mmHg 89%
    20:00 +8°C° 0 mm 1 mps 651 mmHg 89%
    21:00 +8°C° 0 mm 1 mps 651 mmHg 89%
    22:00 +8°C° 0 mm 1 mps 651 mmHg 90%
    23:00 +7°C° 0 mm 1 mps 651 mmHg 89%

    Day after tomorrow, 28 September, Thursday

    Time Temperature Precipitation Wind Pressure Humidity
    00:00 +7°C° 0 mm 1 mps 651 mmHg 89%
    01:00 +7°C° 0 mm 1 mps 651 mmHg 89%
    02:00 +7°C° 0 mm 1 mps 651 mmHg 88%
    03:00 +7°C° 0 mm 1 mps 651 mmHg 87%
    04:00 +7°C° 0 mm 1 mps 651 mmHg 87%
    05:00 +7°C° 0 mm 1 mps 651 mmHg 86%
    06:00 +7°C° 0 mm 1 mps 652 mmHg 85%
    07:00 +7°C° 0 mm 1 mps 652 mmHg 84%
    08:00 +10°C° 0 mm 1 mps 652 mmHg 76%
    09:00 +12°C° 0 mm 1 mps 653 mmHg 67%
    10:00 +14°C° 0 mm 0 mps 654 mmHg 59%
    11:00 +16°C° 0 mm 1 mps 654 mmHg 56%
    12:00 +16°C° 0 mm 1 mps 654 mmHg 54%
    13:00 +18°C° 0 mm 1 mps 654 mmHg 51%
    14:00 +18°C° 0 mm 1 mps 654 mmHg 54%
    15:00 +18°C° 0 mm 1 mps 654 mmHg 57%
    16:00 +16°C° 0 mm 1 mps 654 mmHg 59%
    17:00 +14°C° 0 mm 1 mps 653 mmHg 69%
    18:00 +12°C° 0 mm 1 mps 653 mmHg 79%
    19:00 +9°C° 0 mm 1 mps 652 mmHg 88%
    20:00 +9°C° 0 mm 1 mps 652 mmHg 88%
    21:00 +9°C° 0 mm 1 mps 652 mmHg 88%
    22:00 +9°C° 0 mm 1 mps 653 mmHg 88%
    23:00 +8°C° 0 mm 1 mps 652 mmHg 88%

    29 September, Friday

    Time Temperature Precipitation Wind Pressure Humidity
    00:00 +8°C° 0 mm 1 mps 652 mmHg 88%
    01:00 +8°C° 0 mm 1 mps 652 mmHg 87%
    02:00 +8°C° 0 mm 1 mps 652 mmHg 87%
    03:00 +8°C° 0 mm 1 mps 652 mmHg 87%
    04:00 +8°C° 0 mm 1 mps 651 mmHg 87%
    05:00 +8°C° 0 mm 1 mps 651 mmHg 86%
    06:00 +8°C° 0 mm 1 mps 651 mmHg 85%
    07:00 +8°C° 0 mm 1 mps 651 mmHg 85%
    08:00 +10°C° 0.1 mm 1 mps 652 mmHg 79%
    09:00 +12°C° 0.1 mm 1 mps 652 mmHg 73%
    10:00 +13°C° 0.1 mm 1 mps 653 mmHg 67%
    11:00 +13°C° 0.6 mm 1 mps 652 mmHg 73%
    12:00 +12°C° 0.6 mm 1 mps 652 mmHg 79%
    13:00 +12°C° 0.6 mm 1 mps 651 mmHg 85%
    14:00 +11°C° 0.6 mm 1 mps 651 mmHg 87%
    15:00 +11°C° 0.6 mm 1 mps 651 mmHg 88%
    16:00 +11°C° 0.6 mm 1 mps 651 mmHg 89%
    17:00 +10°C° 0.2 mm 1 mps 651 mmHg 90%
    18:00 +10°C° 0.2 mm 1 mps 651 mmHg 91%
    19:00 +9°C° 0.2 mm 1 mps 651 mmHg 92%
    20:00 +9°C° 0 mm 1 mps 651 mmHg 91%
    21:00 +8°C° 0 mm 1 mps 651 mmHg 91%
    22:00 +8°C° 0 mm 1 mps 650 mmHg 90%
    23:00 +8°C° 0 mm 1 mps 650 mmHg 90%

    30 September, Saturday

    Time Temperature Precipitation Wind Pressure Humidity
    00:00 +7°C° 0 mm 1 mps 650 mmHg 89%
    01:00 +7°C° 0 mm 1 mps 650 mmHg 89%
    02:00 +7°C° 0 mm 1 mps 649 mmHg 89%
    03:00 +7°C° 0 mm 1 mps 649 mmHg 89%
    04:00 +7°C° 0 mm 1 mps 649 mmHg 88%
    05:00 +7°C° 0 mm 1 mps 649 mmHg 88%
    06:00 +7°C° 0 mm 1 mps 649 mmHg 87%
    07:00 +7°C° 0 mm 1 mps 649 mmHg 87%
    08:00 +10°C° 0 mm 1 mps 649 mmHg 81%
    09:00 +12°C° 0 mm 1 mps 650 mmHg 75%
    10:00 +13°C° 0 mm 0 mps 650 mmHg 68%
    11:00 +14°C° 0 mm 0 mps 650 mmHg 66%
    12:00 +15°C° 0 mm 1 mps 650 mmHg 65%
    13:00 +16°C° 0 mm 1 mps 650 mmHg 63%
    14:00 +16°C° 0.3 mm 1 mps 649 mmHg 67%
    15:00 +15°C° 0.3 mm 1 mps 649 mmHg 72%
    16:00 +15°C° 0.3 mm 1 mps 649 mmHg 76%
    17:00 +13°C° 0.3 mm 1 mps 648 mmHg 82%
    18:00 +11°C° 0.3 mm 1 mps 648 mmHg 87%
    19:00 +9°C° 0.3 mm 0 mps 648 mmHg 93%
    20:00 +9°C° 0.1 mm 0 mps 648 mmHg 93%
    21:00 +9°C° 0.1 mm 1 mps 648 mmHg 94%
    22:00 +9°C° 0.1 mm 1 mps 648 mmHg 94%
    23:00 +9°C° 0 mm 1 mps 647 mmHg 94%

    1 October, Sunday

    Time Temperature Precipitation Wind Pressure Humidity
    00:00 +9°C° 0 mm 1 mps 647 mmHg 93%
    01:00 +8°C° 0 mm 1 mps 647 mmHg 93%
    02:00 +8°C° 0 mm 1 mps 647 mmHg 93%
    03:00 +8°C° 0 mm 1 mps 647 mmHg 93%
    04:00 +8°C° 0 mm 1 mps 647 mmHg 93%
    05:00 +7°C° 0 mm 0 mps 647 mmHg 94%
    06:00 +7°C° 0 mm 0 mps 648 mmHg 94%
    07:00 +7°C° 0 mm 0 mps 648 mmHg 94%
    08:00 +8°C° 0.1 mm 0 mps 648 mmHg 92%
    09:00 +10°C° 0.1 mm 1 mps 648 mmHg 90%
    10:00 +11°C° 0.1 mm 1 mps 649 mmHg 88%
    11:00 +11°C° 0.2 mm 1 mps 649 mmHg 87%
    12:00 +12°C° 0.2 mm 1 mps 649 mmHg 86%
    13:00 +12°C° 0.2 mm 1 mps 649 mmHg 84%
    14:00 +12°C° 0.2 mm 1 mps 649 mmHg 85%
    15:00 +12°C° 0.2 mm 1 mps 649 mmHg 85%
    16:00 +12°C° 0.2 mm 1 mps 649 mmHg 86%
    17:00 +11°C° 0.1 mm 1 mps 649 mmHg 89%
    18:00 +10°C° 0.1 mm 1 mps 649 mmHg 93%
    19:00 +9°C° 0.1 mm 1 mps 649 mmHg 96%
    20:00 +9°C° 0 mm 1 mps 649 mmHg 96%
    21:00 +8°C° 0 mm 1 mps 649 mmHg 96%
    22:00 +7°C° 0 mm 0 mps 649 mmHg 96%
    23:00 +7°C° 0 mm 1 mps 649 mmHg 96%
    Show more